Weather reports worldwide

Advertisment
Köln-Bonn, Germany (10513): temperature & dewpoint: 18.01.2020 02:00:00 - 24.01.2020 02:00:00 (CET)Köln-Bonn, Germany (10513): temperature 5cm & temperature -5cm: 18.01.2020 02:00:00 - 24.01.2020 02:00:00 (CET)Köln-Bonn, Germany (10513): temperature -20cm & temperature -100cm: 18.01.2020 02:00:00 - 24.01.2020 02:00:00 (CET)Köln-Bonn, Germany (10513): wind speed & gusts: 18.01.2020 02:00:00 - 24.01.2020 02:00:00 (CET)Köln-Bonn, Germany (10513): wind direction: 18.01.2020 02:00:00 - 24.01.2020 02:00:00 (CET)Köln-Bonn, Germany (10513): reduced air pressure: 18.01.2020 02:00:00 - 24.01.2020 02:00:00 (CET)Köln-Bonn, Germany (10513): visibility: 18.01.2020 02:00:00 - 24.01.2020 02:00:00 (CET)Köln-Bonn, Germany (10513): sunshine duration: 18.01.2020 02:00:00 - 24.01.2020 02:00:00 (CET)Köln-Bonn, Germany (10513): precipitation: 18.01.2020 02:00:00 - 24.01.2020 02:00:00 (CET)
Date & Time tt [°C] td [°C] tt 5cm [°C] tt -5cm [°C] tt -20cm [°C] tt -100cm [°C] ff [km/h] ff [kn] fx [km/h] fx [kn] dd ppp [hPa] vv [km] sd [min] rr [mm]
24.01.2020 02:00:00 0,6 -1,5 0,1 1,0 2,8 6,2 13 7 24 13 SE 1026,2 10 0 0,0
24.01.2020 01:00:00 0,5 -1,5 -0,2 1,1 2,9 6,2 11 6 18 10 SE 1026,7 10 0 0,0
24.01.2020 00:00:00 -0,1 -1,5 -0,9 1,1 3,0 6,2 10 5 13 7 ESE 1027,3 14 0 0,0
23.01.2020 23:00:00 -1,1 -2,1 -3,7 1,3 3,1 6,2 5 3 11 6 SE 1027,7 10 0 0,0
23.01.2020 22:00:00 -0,6 -1,8 -3,1 1,5 3,2 6,2 5 3 8 4 E 1028,1 10 0 0,0
23.01.2020 21:00:00 0,4 -1,6 -2,0 1,8 3,3 6,2 5 3 15 8 E 1028,3 10 0 0,0
23.01.2020 20:00:00 1,8 -0,9 1,4 2,4 3,3 6,2 11 6 21 11 ESE 1028,7 10 0 0,0
23.01.2020 19:00:00 2,1 -0,2 1,8 2,6 3,3 6,2 13 7 16 9 SE 1028,8 10 0 0,0
23.01.2020 18:00:00 2,2 0,0 1,9 2,7 3,3 6,2 8 4 21 11 SE 1029,4 10 0 0,0
23.01.2020 17:00:00 2,4 0,0 2,2 3,0 3,3 6,2 16 9 24 13 SE 1029,7 25 0 0,0
23.01.2020 16:00:00 2,6 0,1 2,6 3,1 3,2 6,2 9 5 22 12 SE 1030,3 10 0 0,0
23.01.2020 15:00:00 2,7 0,1 2,5 3,2 3,2 6,2 13 7 21 11 SE 1031,0 10 0 0,0
23.01.2020 14:00:00 2,8 0,4 2,6 3,2 3,1 6,3 11 6 21 11 SE 1031,8 10 0 0,0
23.01.2020 13:00:00 2,8 0,4 2,6 3,0 3,0 6,3 13 7 22 12 SE 1032,6 10 0 0,0
23.01.2020 12:00:00 2,8 0,5 2,5 2,8 2,9 6,3 15 8 18 10 ESE 1033,2 10 0 0,0
23.01.2020 11:00:00 2,8 1,1 2,5 2,6 2,8 6,3 11 6 18 10 SE 1033,8 10 0 0,0
23.01.2020 10:00:00 2,5 1,1 2,2 2,3 2,8 6,3 8 4 11 6 SE 1034,1 10 0 0,0
23.01.2020 09:00:00 2,1 1,1 1,8 2,1 2,7 6,3 5 3 9 5 E 1034,4 10 0 0,0
23.01.2020 08:00:00 2,0 1,2 1,7 2,1 2,7 6,3 4 2 9 5 - 1034,2 10 0 0,0
23.01.2020 07:00:00 2,1 1,1 1,7 2,0 2,6 6,3 4 2 9 5 ENE 1034,7 10 0 0,0
23.01.2020 06:00:00 1,8 1,2 1,5 1,9 2,6 6,3 4 2 9 5 - 1035,0 10 0 0,0
23.01.2020 05:00:00 1,6 1,3 1,3 1,9 2,6 6,4 5 3 11 6 ENE 1035,4 10 0 0,0
23.01.2020 04:00:00 1,7 1,0 1,4 1,8 2,5 6,4 5 3 9 5 ESE 1036,1 10 0 0,0
23.01.2020 03:00:00 1,4 0,3 1,2 1,7 2,5 6,4 5 3 8 4 E 1036,7 12 0 0,0
23.01.2020 02:00:00 1,2 0,6 1,0 1,6 2,5 6,4 4 2 8 4 ENE 1037,1 9 0 0,0
23.01.2020 01:00:00 1,2 0,6 1,0 1,6 2,4 6,4 6 3 8 4 ESE 1037,5 9 0 0,0
23.01.2020 00:00:00 1,0 0,4 0,8 1,6 2,4 6,4 5 3 11 6 ESE 1037,6 7 0 0,0
22.01.2020 23:00:00 1,1 0,8 0,9 1,5 2,3 6,4 3 2 5 3 E 1037,6 6 0 0,0
22.01.2020 22:00:00 1,1 0,5 1,0 1,5 2,3 6,5 5 3 5 3 SSE 1037,5 6 0 0,0
22.01.2020 21:00:00 1,0 0,5 0,9 1,4 2,2 6,5 5 3 8 4 SSE 1037,6 4,5 0 0,0
22.01.2020 20:00:00 0,9 0,4 0,8 1,2 2,1 6,5 4 2 9 5 - 1037,4 3,5 0 0,0
22.01.2020 19:00:00 0,8 0,3 0,7 1,1 2,1 6,5 5 3 8 4 NE 1037,1 2,5 0 0,0
22.01.2020 18:00:00 0,8 0,4 0,6 0,8 2,0 6,5 4 2 5 3 E 1036,7 2,5 0 0,0
22.01.2020 17:00:00 0,8 0,3 0,7 0,6 2,0 6,5 2 1 4 2 - 1036,7 1,6 0 0,0
22.01.2020 16:00:00 0,8 0,1 0,8 0,4 2,0 6,5 2 1 4 2 - 1036,7 2,2 0 0,0
22.01.2020 15:00:00 0,7 0,4 0,8 0,3 2,0 6,6 4 2 8 4 S 1036,9 1,9 0 0,0
22.01.2020 14:00:00 0,2 -0,5 0,5 0,3 2,0 6,6 3 2 8 4 S 1037,4 2,3 0 0,0
22.01.2020 13:00:00 -0,3 -0,9 0,0 0,3 2,1 6,6 4 2 9 5 - 1037,8 2,7 0 0,0
22.01.2020 12:00:00 -0,9 -1,2 -0,5 0,3 2,1 6,6 4 2 8 4 S 1038,2 2,2 0 0,0
22.01.2020 11:00:00 -1,2 -1,7 -0,8 0,3 2,1 6,6 4 2 11 6 - 1038,4 2,5 0 0,0
22.01.2020 10:00:00 -1,9 -2,4 -1,6 0,3 2,1 6,6 2 1 9 5 - 1038,6 0,9 0 0,0
22.01.2020 09:00:00 -2,2 -2,6 -1,9 0,2 2,2 6,6 9 5 16 9 N 1038,3 0,5 0 0,0
22.01.2020 08:00:00 -1,9 -2,1 -1,7 0,2 2,2 6,6 2 1 11 6 - 1037,4 0,3 0 0,0
22.01.2020 07:00:00 -2,2 -2,4 -2,0 0,2 2,2 6,7 5 3 10 5 S 1037,6 0,5 0 0,0
22.01.2020 06:00:00 -2,3 -3,1 -2,3 0,2 2,3 6,7 2 1 5 3 E 1038,1 12 0 0,0
22.01.2020 05:00:00 -2,8 -3,5 -2,8 0,2 2,3 6,7 4 2 5 3 SSE 1038,3 12 0 0,0
22.01.2020 04:00:00 -4,3 -5,2 -4,5 0,2 2,4 6,7 2 1 8 4 - 1038,8 10 0 0,0
22.01.2020 03:00:00 -4,5 -5,3 -6,7 0,3 2,5 6,7 5 3 8 4 SSE 1038,9 10 0 0,0
22.01.2020 02:00:00 -3,9 -4,4 -6,7 0,4 2,6 6,7 4 2 13 7 - 1038,8 10 0 0,0
22.01.2020 01:00:00 -4,6 -5,9 -5,9 0,5 2,6 6,7 8 4 13 7 ESE 1039,0 15 0 0,0
22.01.2020 00:00:00 -2,0 -2,8 -4,2 0,6 2,7 6,7 4 2 10 6 - 1039,3 10 0 0,0
21.01.2020 23:00:00 -2,7 -3,6 -3,8 0,7 2,8 6,8 11 6 16 9 SSE 1039,6 17 0 0,0
21.01.2020 22:00:00 -2,4 -3,1 -5,1 0,9 2,9 6,8 6 3 9 5 ESE 1040,4 17 0 0,0
21.01.2020 21:00:00 -2,2 -2,8 -5,9 1,0 3,0 6,8 2 1 11 6 - 1040,5 10 0 0,0
21.01.2020 20:00:00 -2,1 -3,2 -4,8 1,2 3,1 6,8 9 5 9 5 ENE 1040,6 10 0 0,0
21.01.2020 19:00:00 -0,1 -1,8 -2,8 1,4 3,2 6,8 6 3 8 4 E 1040,5 35 0 0,0
21.01.2020 18:00:00 1,2 -2,0 -2,3 1,6 3,3 6,8 4 2 5 3 - 1040,8 10 0 0,0
21.01.2020 17:00:00 3,2 -1,5 -0,2 3,1 3,2 6,8 4 2 8 4 - 1041,0 10 34 0,0
21.01.2020 16:00:00 6,1 -1,8 5,2 4,4 2,9 6,9 2 1 8 4 S 1041,1 10 60 0,0
21.01.2020 15:00:00 5,8 -1,7 6,4 4,3 2,5 6,9 2 1 8 4 - 1041,2 10 60 0,0
21.01.2020 14:00:00 5,0 -1,0 6,7 2,7 2,4 6,9 5 3 9 5 NE 1041,9 35 60 0,0
21.01.2020 13:00:00 3,9 -1,4 5,0 0,2 2,4 6,9 5 3 9 5 - 1042,9 10 60 0,0
21.01.2020 12:00:00 2,4 -1,9 3,3 0,2 2,5 6,9 8 4 8 4 ESE 1043,8 10 60 0,0
21.01.2020 11:00:00 0,4 -2,5 2,5 0,2 2,5 6,9 3 1 5 3 E 1044,0 40 60 0,0
21.01.2020 10:00:00 -1,5 -3,1 -1,1 0,1 2,6 6,9 8 4 10 5 SE 1043,8 10 33 0,0
21.01.2020 09:00:00 -4,2 -5,3 -5,9 0,0 2,7 6,9 5 3 9 5 SE 1044,1 10 0 0,0
21.01.2020 08:00:00 -3,6 -4,8 -4,9 0,1 2,8 6,9 7 4 9 5 SE 1044,0 30 0 0,0
21.01.2020 07:00:00 -2,8 -3,8 -4,9 0,2 2,9 6,9 5 3 11 6 E 1043,9 30 0 0,0
21.01.2020 06:00:00 -4,1 -5,2 -6,8 0,3 3,0 6,9 2 1 9 5 - 1044,1 10 0 0,0
21.01.2020 05:00:00 -3,5 -4,5 -5,9 0,5 3,1 6,9 5 3 13 7 ENE 1044,6 10 0 0,0
21.01.2020 04:00:00 -2,4 -3,4 -5,2 0,6 3,2 6,9 5 3 11 6 ESE 1044,9 10 0 0,0
21.01.2020 03:00:00 -3,6 -4,3 -5,5 0,7 3,3 6,9 7 4 9 5 SE 1045,8 20 0 0,0
21.01.2020 02:00:00 -2,4 -3,4 -5,4 0,8 3,5 7,0 6 4 8 4 S 1045,9 20 0 0,0
21.01.2020 01:00:00 -3,0 -3,5 -5,7 1,0 3,6 7,0 5 3 8 4 SSE 1046,2 10 0 0,0
21.01.2020 00:00:00 -2,9 -4,3 -5,0 1,2 3,8 7,0 7 4 10 5 SE 1046,8 22 0 0,0
20.01.2020 23:00:00 0,6 -1,0 -1,5 1,4 4,0 7,0 6 3 11 6 ESE 1046,6 24 0 0,0
20.01.2020 22:00:00 -1,0 -1,5 -3,9 1,6 4,2 7,0 8 4 11 6 ESE 1046,9 20 0 0,0
20.01.2020 21:00:00 -1,0 -1,3 -3,4 1,8 4,4 7,0 5 3 11 6 ESE 1046,8 14 0 0,0
20.01.2020 20:00:00 0,4 0,1 -2,5 2,0 4,7 7,0 5 3 16 8 NE 1046,9 10 0 0,0
20.01.2020 19:00:00 0,7 -0,1 -1,6 2,9 4,8 7,0 2 1 9 5 ESE 1046,9 15 0 0,0
20.01.2020 18:00:00 3,1 1,7 1,2 4,0 4,9 7,0 4 2 8 4 SSE 1047,0 22 0 0,0
20.01.2020 17:00:00 3,7 1,5 1,0 4,9 4,9 7,0 2 1 8 4 N 1046,9 10 11 0,0
20.01.2020 16:00:00 5,4 1,7 6,3 6,4 4,7 7,1 3 1 8 4 NNE 1047,0 23 31 0,0
20.01.2020 15:00:00 4,7 1,9 4,9 6,4 4,4 7,1 3 2 13 7 SSE 1047,7 16 0 0,0
20.01.2020 14:00:00 4,5 2,0 6,0 6,1 4,0 7,1 4 2 9 5 - 1048,2 7 14 0,0
20.01.2020 13:00:00 3,4 2,5 4,6 5,0 3,8 7,1 4 2 8 4 - 1048,8 6 0 0,0
20.01.2020 12:00:00 2,8 2,5 3,9 3,7 3,6 7,1 4 2 8 4 - 1049,1 3,5 0 0,0
20.01.2020 11:00:00 2,1 2,0 2,5 2,9 3,5 7,1 4 2 9 5 - 1049,4 1,2 0 0,0
20.01.2020 10:00:00 1,3 1,3 1,5 2,0 3,5 7,1 4 2 9 5 E 1049,1 0,2 0 0,0
20.01.2020 09:00:00 0,4 0,2 0,2 1,5 3,5 7,1 5 3 9 5 ESE 1048,3 0,5 0 0,0
20.01.2020 08:00:00 0,1 -0,1 0,0 1,5 3,6 7,1 8 5 12 7 SE 1047,8 0,1 0 0,0
20.01.2020 07:00:00 0,1 -0,5 -0,5 1,4 3,7 7,1 5 3 9 5 E 1047,9 3,5 0 0,0
20.01.2020 06:00:00 0,6 0,3 0,2 1,7 3,7 7,1 5 3 9 5 SE 1047,5 3,8 0 0,0
20.01.2020 05:00:00 0,4 0,1 -0,1 1,5 3,8 7,1 4 2 5 3 - 1047,1 4,5 0 0,0
20.01.2020 04:00:00 0,6 0,4 0,0 1,5 3,9 7,1 5 3 18 10 SE 1047,1 6 0 0,0
20.01.2020 03:00:00 0,1 -0,3 -0,2 1,4 4,0 7,1 4 2 5 3 - 1047,0 7 0 0,0
20.01.2020 02:00:00 0,4 0,0 -1,9 1,5 4,2 7,1 2 1 9 5 - 1046,8 6 0 0,0
20.01.2020 01:00:00 0,4 0,2 -0,5 1,6 4,4 7,1 2 1 6 3 NE 1046,5 4,8 0 0,0
20.01.2020 00:00:00 1,3 0,8 -1,5 1,6 4,7 7,2 2 1 4 2 - 1046,5 10 0 0,0
19.01.2020 23:00:00 1,6 1,3 -1,1 2,1 4,9 7,2 2 1 4 2 - 1045,9 10 0 0,0
19.01.2020 22:00:00 1,5 0,7 -0,2 2,9 5,1 7,2 5 3 13 7 NNW 1045,2 20 0 0,0
19.01.2020 21:00:00 3,1 2,1 1,0 3,9 5,2 7,2 8 4 9 5 N 1044,5 10 0 0,0
19.01.2020 20:00:00 3,5 2,6 1,8 4,2 5,3 7,2 8 4 11 6 N 1043,9 10 0 0,0
19.01.2020 19:00:00 3,8 3,1 3,2 4,5 5,3 7,2 3 2 11 6 WNW 1043,3 20 0 0,0
19.01.2020 18:00:00 3,9 3,4 3,3 4,8 5,3 7,2 5 3 15 8 NNW 1042,8 10 0 0,0
19.01.2020 17:00:00 4,4 3,3 3,9 5,2 5,3 7,2 8 4 13 7 NNW 1041,7 10 0 0,0
19.01.2020 16:00:00 4,6 3,3 4,4 5,8 5,2 7,2 6 3 15 8 NNW 1040,3 18 0 0,3
19.01.2020 15:00:00 5,1 2,7 5,0 6,5 4,9 7,2 11 6 15 8 WNW 1039,6 18 26 0,0
19.01.2020 14:00:00 4,3 2,4 4,6 5,4 4,8 7,2 11 6 18 10 NW 1039,4 10 0 0,0
19.01.2020 13:00:00 3,7 2,3 4,3 4,9 4,6 7,2 13 7 18 10 NNW 1038,9 9 0 0,0
19.01.2020 12:00:00 3,0 1,7 3,5 4,4 4,5 7,2 10 5 15 8 NNW 1038,6 10 0 0,0
19.01.2020 11:00:00 2,9 1,5 3,1 3,8 4,5 7,2 10 5 15 8 NW 1038,3 15 0 0,0
19.01.2020 10:00:00 2,2 1,2 2,4 3,1 4,5 7,2 8 4 15 8 NNW 1037,1 13 0 0,0
19.01.2020 09:00:00 1,3 0,5 0,9 2,7 4,6 7,2 2 1 8 4 SW 1035,9 8 0 0,0
19.01.2020 08:00:00 1,8 0,9 1,3 3,0 4,7 7,2 3 2 8 4 SW 1035,1 11 0 0,2
19.01.2020 07:00:00 2,0 1,2 1,5 3,1 4,8 7,3 5 3 11 6 NNW 1034,2 10 0 0,0
19.01.2020 06:00:00 2,1 1,0 1,4 3,4 4,8 7,3 4 2 13 7 WNW 1033,4 13 0 0,0
19.01.2020 05:00:00 2,7 1,5 2,3 3,5 4,9 7,3 8 4 16 9 NW 1033,2 10 0 0,0
19.01.2020 04:00:00 2,6 1,5 2,2 3,6 4,9 7,3 8 5 13 7 WNW 1032,6 15 0 0,0
19.01.2020 03:00:00 2,7 1,9 2,6 3,7 5,0 7,3 5 3 8 4 WSW 1032,2 10 0 0,0
19.01.2020 02:00:00 2,2 1,7 2,1 3,5 5,0 7,3 6 3 8 4 SSW 1031,7 15 0 0,0
19.01.2020 01:00:00 2,3 1,3 2,1 3,6 5,1 7,3 5 3 15 8 NNW 1031,2 20 0 1,0
19.01.2020 00:00:00 2,5 1,2 2,0 3,8 5,2 7,3 9 5 27 14 NNW 1030,8 10 0 0,5
18.01.2020 23:00:00 3,5 1,6 2,8 4,0 5,2 7,3 18 10 22 12 NW 1030,0 10 0 0,0
18.01.2020 22:00:00 4,3 1,0 3,8 4,0 5,3 7,3 14 8 29 15 WNW 1029,6 30 0 0,0
18.01.2020 21:00:00 4,8 0,9 4,0 4,1 5,4 7,3 24 13 24 13 WNW 1029,0 10 0 0,0
18.01.2020 20:00:00 4,0 0,7 2,8 4,2 5,5 7,3 8 5 18 10 W 1028,4 35 0 0,0
18.01.2020 19:00:00 4,9 1,0 4,0 4,5 5,6 7,3 12 7 18 10 WSW 1027,7 40 0 0,0
18.01.2020 18:00:00 5,3 1,0 3,9 4,8 5,6 7,3 11 6 22 12 W 1027,4 10 0 0,0
18.01.2020 17:00:00 5,7 0,8 4,8 5,3 5,6 7,3 14 8 31 17 W 1026,9 45 24 0,0
18.01.2020 16:00:00 6,2 0,6 6,0 5,8 5,6 7,3 12 7 27 15 W 1026,4 45 34 0,0
18.01.2020 15:00:00 5,7 1,1 4,8 6,3 5,4 7,3 16 9 31 17 WNW 1026,0 50 11 0,0
18.01.2020 14:00:00 5,8 2,5 5,5 6,1 5,2 7,3 21 11 28 15 W 1025,8 10 0 0,0
18.01.2020 13:00:00 5,8 2,1 6,1 6,1 5,0 7,3 17 9 27 14 WSW 1025,7 55 12 0,0
18.01.2020 12:00:00 5,2 2,4 4,9 5,1 4,9 7,3 22 12 29 16 WSW 1025,8 10 0 0,0
18.01.2020 11:00:00 5,6 2,2 5,3 4,7 4,8 7,3 22 12 29 15 WSW 1025,6 10 0 0,0
18.01.2020 10:00:00 4,9 2,2 4,1 3,9 4,7 7,3 14 7 22 12 SW 1025,0 40 0 0,0
18.01.2020 09:00:00 4,5 1,7 3,3 3,4 4,7 7,3 10 6 18 10 SSW 1024,4 50 0 0,2
18.01.2020 08:00:00 4,5 1,4 3,3 3,2 4,7 7,3 9 5 17 9 S 1024,2 50 0 0,0
18.01.2020 07:00:00 4,4 0,9 3,1 2,9 4,8 7,3 12 6 21 11 SSW 1023,9 60 0 0,0
18.01.2020 06:00:00 3,9 0,8 2,5 2,5 4,9 7,3 11 6 15 8 S 1023,9 10 0 0,0
18.01.2020 05:00:00 2,3 0,2 0,8 2,2 5,1 7,3 11 6 16 9 S 1023,7 60 0 0,0
18.01.2020 04:00:00 3,3 0,6 0,6 2,3 5,3 7,3 13 7 15 8 SSW 1023,5 10 0 0,0
18.01.2020 03:00:00 3,3 0,6 0,2 2,7 5,5 7,3 9 5 13 7 S 1023,0 10 0 0,0
18.01.2020 02:00:00 4,3 1,3 1,2 3,2 5,7 7,3 9 5 23 13 SSW 1022,5 60 0 0,0

tt = temperature
td = dewpoint
tt 5cm = temperature 5cm
tt -5cm = temperature -5cm
tt -20cm = temperature -20cm
tt -100cm = temperature -100cm
ff = wind speed
fx = gusts
dd = wind direction
ppp = reduced air pressure
vv = visibility
sd = sunshine duration
rr = precipitation

Next stations